ANA1268 ROAH-RJOI

Flight info

Callsign ANA1268
Flight time 1h 19m
Altitude 35000
Route AMAMI Y25 KANAH HKC Y45 OOITA Y40 MYE
Aircraft B738/M-SDE2E3FGHIRWXY/LB1

Departure

Time 2026-05-05 18:47
Airport Naha International Airport (ROAH)

Arrival

Time 2026-05-05 20:06
Airport Iwakuni Kintaikyo Airport (RJOI)
Time Latitude Longitude Altitude Speed Heading
2026-05-05 18:28 26.20493 127.64840 22 ft 0 kts 87°
2026-05-05 18:40 26.20492 127.64819 20 ft 4 kts 86°
2026-05-05 18:40 26.20489 127.64794 19 ft 2 kts 65°
2026-05-05 18:40 26.20482 127.64782 18 ft 2 kts 47°
2026-05-05 18:40 26.20478 127.64777 22 ft 0 kts 46°
2026-05-05 18:42 26.20479 127.64778 18 ft 1 kts 39°
2026-05-05 18:43 26.20484 127.64772 18 ft 1 kts 309°
2026-05-05 18:43 26.20496 127.64756 19 ft 5 kts 334°
2026-05-05 18:43 26.20566 127.64748 16 ft 15 kts 357°
2026-05-05 18:43 26.20689 127.64742 16 ft 20 kts 358°
2026-05-05 18:44 26.20834 127.64735 16 ft 22 kts 358°
2026-05-05 18:44 26.20953 127.64718 16 ft 13 kts 327°
2026-05-05 18:44 26.20975 127.64624 15 ft 0 kts 263°
2026-05-05 18:45 26.20975 127.64618 15 ft 3 kts 262°
2026-05-05 18:45 26.20960 127.64570 17 ft 9 kts 237°
2026-05-05 18:45 26.20906 127.64529 16 ft 10 kts 194°
2026-05-05 18:46 26.20869 127.64527 17 ft 0 kts 178°
2026-05-05 18:46 26.20855 127.64528 17 ft 17 kts 178°
2026-05-05 18:46 26.20470 127.64545 18 ft 93 kts 177°
2026-05-05 18:46 26.19611 127.64584 15 ft 156 kts 178°
2026-05-05 18:47 26.18379 127.64636 318 ft 184 kts 177°
2026-05-05 18:47 26.17065 127.64645 1060 ft 199 kts 176°
2026-05-05 18:47 26.15607 127.64683 1542 ft 218 kts 173°
2026-05-05 18:47 26.14039 127.64759 2046 ft 231 kts 174°
2026-05-05 18:48 26.12437 127.64859 2579 ft 235 kts 173°
2026-05-05 18:48 26.10758 127.64987 2966 ft 246 kts 173°
2026-05-05 18:48 26.09016 127.65095 3520 ft 254 kts 174°
2026-05-05 18:48 26.07265 127.65181 4356 ft 249 kts 176°
2026-05-05 18:49 26.05534 127.65259 5113 ft 250 kts 177°
2026-05-05 18:49 26.03799 127.65458 5781 ft 254 kts 164°
2026-05-05 18:49 26.02253 127.66473 6294 ft 267 kts 138°
2026-05-05 18:49 26.01234 127.68224 6914 ft 277 kts 114°
2026-05-05 18:50 26.00957 127.70378 7467 ft 289 kts 93°
2026-05-05 18:50 26.01040 127.72637 8035 ft 296 kts 89°
2026-05-05 18:50 26.01643 127.74870 8493 ft 311 kts 58°
2026-05-05 18:50 26.02967 127.76769 9215 ft 312 kts 52°
2026-05-05 18:51 26.04365 127.78646 9733 ft 319 kts 51°
2026-05-05 18:51 26.05796 127.80563 10247 ft 325 kts 52°
2026-05-05 18:51 26.07278 127.82560 10379 ft 346 kts 52°
2026-05-05 18:51 26.08844 127.84688 10565 ft 364 kts 52°
2026-05-05 18:52 26.10484 127.86926 10679 ft 383 kts 52°
2026-05-05 18:52 26.12201 127.89273 10825 ft 399 kts 52°
2026-05-05 18:52 26.13989 127.91720 11000 ft 412 kts 52°
2026-05-05 18:52 26.15806 127.94212 11425 ft 417 kts 51°
2026-05-05 18:53 26.17823 127.96537 11846 ft 422 kts 34°
2026-05-05 18:53 26.20317 127.98194 12626 ft 415 kts 28°
2026-05-05 18:53 26.22840 127.99810 12956 ft 424 kts 29°
2026-05-05 18:53 26.25404 128.01492 13273 ft 431 kts 30°
2026-05-05 18:54 26.27985 128.03214 13733 ft 434 kts 30°
2026-05-05 18:54 26.30584 128.04965 14100 ft 439 kts 30°
2026-05-05 18:54 26.33176 128.06718 14478 ft 442 kts 30°
2026-05-05 18:54 26.35810 128.08505 14937 ft 444 kts 30°
2026-05-05 18:55 26.38459 128.10303 15328 ft 448 kts 30°
2026-05-05 18:55 26.41133 128.12117 15681 ft 452 kts 30°
2026-05-05 18:55 26.43834 128.13950 16049 ft 455 kts 30°
2026-05-05 18:55 26.46549 128.15793 16445 ft 458 kts 30°
2026-05-05 18:56 26.49277 128.17646 16847 ft 461 kts 30°
2026-05-05 18:56 26.52026 128.19515 17191 ft 464 kts 30°
2026-05-05 18:56 26.54804 128.21404 17464 ft 470 kts 30°
2026-05-05 18:56 26.57604 128.23310 17814 ft 473 kts 30°
2026-05-05 18:57 26.60414 128.25225 18230 ft 474 kts 30°
2026-05-05 18:57 26.63237 128.27148 18544 ft 477 kts 29°
2026-05-05 18:57 26.66085 128.29088 18833 ft 479 kts 29°
2026-05-05 18:57 26.68862 128.31164 19119 ft 484 kts 39°
2026-05-05 18:58 26.71142 128.33965 19370 ft 487 kts 53°
2026-05-05 18:58 26.73175 128.36965 19923 ft 483 kts 53°
2026-05-05 18:58 26.75218 128.39970 20097 ft 489 kts 52°
2026-05-05 18:58 26.77279 128.42954 20255 ft 494 kts 52°
2026-05-05 18:59 26.79409 128.45990 20550 ft 496 kts 51°
2026-05-05 18:59 26.81554 128.49019 20877 ft 496 kts 51°
2026-05-05 18:59 26.83707 128.52048 21173 ft 499 kts 51°
2026-05-05 18:59 26.85852 128.55068 21773 ft 491 kts 51°
2026-05-05 19:00 26.87976 128.58064 22108 ft 493 kts 51°
2026-05-05 19:00 26.90122 128.61095 22126 ft 501 kts 51°
2026-05-05 19:00 26.92314 128.64150 22305 ft 504 kts 48°
2026-05-05 19:00 26.94926 128.66763 22359 ft 506 kts 28°
2026-05-05 19:01 26.98016 128.68611 22625 ft 503 kts 23°
2026-05-05 19:01 27.01136 128.70397 22924 ft 504 kts 23°
2026-05-05 19:01 27.04261 128.72213 23139 ft 507 kts 25°
2026-05-05 19:01 27.07379 128.74059 23407 ft 507 kts 25°
2026-05-05 19:02 27.10493 128.75928 23620 ft 509 kts 25°
2026-05-05 19:02 27.13616 128.77819 23776 ft 511 kts 25°
2026-05-05 19:02 27.16746 128.79724 23948 ft 512 kts 25°
2026-05-05 19:02 27.19836 128.81608 24151 ft 513 kts 25°
2026-05-05 19:03 27.22980 128.83527 24397 ft 512 kts 25°
2026-05-05 19:03 27.26094 128.85428 24781 ft 508 kts 25°
2026-05-05 19:03 27.29201 128.87323 24936 ft 510 kts 25°
2026-05-05 19:03 27.32341 128.89237 24998 ft 514 kts 25°
2026-05-05 19:04 27.35497 128.91160 25059 ft 519 kts 25°
2026-05-05 19:04 27.38679 128.93100 25172 ft 521 kts 25°
2026-05-05 19:04 27.41866 128.95047 25408 ft 520 kts 25°
2026-05-05 19:04 27.45043 128.96990 25641 ft 520 kts 25°
2026-05-05 19:05 27.48220 128.98934 25815 ft 521 kts 25°
2026-05-05 19:05 27.51408 129.00885 25934 ft 523 kts 25°
2026-05-05 19:05 27.54610 129.02846 26057 ft 525 kts 25°
2026-05-05 19:05 27.57825 129.04816 26215 ft 526 kts 25°
2026-05-05 19:06 27.61037 129.06785 26375 ft 527 kts 25°
2026-05-05 19:06 27.63172 129.08096 26478 ft 527 kts 25°
2026-05-05 19:06 27.66398 129.10077 26620 ft 528 kts 25°
2026-05-05 19:06 27.69629 129.12061 26780 ft 529 kts 25°
2026-05-05 19:07 27.72864 129.14051 26921 ft 530 kts 25°
2026-05-05 19:07 27.76147 129.16070 27058 ft 532 kts 25°
2026-05-05 19:07 27.79352 129.18044 27254 ft 531 kts 25°
2026-05-05 19:07 27.82587 129.20038 27579 ft 529 kts 25°
2026-05-05 19:08 27.85809 129.22026 27896 ft 526 kts 25°
2026-05-05 19:08 27.89020 129.24007 28119 ft 526 kts 25°
2026-05-05 19:08 27.92234 129.25991 28252 ft 528 kts 25°
2026-05-05 19:08 27.95460 129.27983 28408 ft 529 kts 25°
2026-05-05 19:09 27.98690 129.29979 28680 ft 528 kts 25°
2026-05-05 19:09 28.01909 129.31971 29081 ft 523 kts 25°
2026-05-05 19:09 28.05090 129.33943 29512 ft 519 kts 25°
2026-05-05 19:09 28.08260 129.35908 29737 ft 519 kts 24°
2026-05-05 19:10 28.14653 129.39867 29809 ft 528 kts 24°
2026-05-05 19:10 28.17869 129.41862 30063 ft 527 kts 25°
2026-05-05 19:10 28.21067 129.43849 30495 ft 520 kts 25°
2026-05-05 19:11 28.24219 129.45809 30885 ft 515 kts 24°
2026-05-05 19:11 28.27362 129.47768 31027 ft 517 kts 24°
2026-05-05 19:11 28.33705 129.51714 31164 ft 522 kts 24°
2026-05-05 19:12 28.36886 129.53703 31441 ft 520 kts 25°
2026-05-05 19:12 28.40053 129.55682 31701 ft 519 kts 24°
2026-05-05 19:12 28.43231 129.57636 31851 ft 519 kts 21°
2026-05-05 19:12 28.46603 129.58968 31791 ft 509 kts
2026-05-05 19:13 28.50076 129.59406 32195 ft 498 kts 359°
2026-05-05 19:13 28.53501 129.59843 32622 ft 493 kts 359°
2026-05-05 19:13 28.56871 129.60307 32812 ft 495 kts
2026-05-05 19:13 28.60298 129.60806 32832 ft 499 kts
2026-05-05 19:14 28.67223 129.61861 32967 ft 504 kts
2026-05-05 19:14 28.70698 129.62401 33069 ft 505 kts
2026-05-05 19:14 28.74182 129.62941 33056 ft 506 kts
2026-05-05 19:15 28.81131 129.64017 33069 ft 503 kts
2026-05-05 19:15 28.88053 129.65083 33077 ft 502 kts
2026-05-05 19:16 28.94983 129.66150 33094 ft 502 kts
2026-05-05 19:16 29.01918 129.67219 33095 ft 505 kts
2026-05-05 19:17 29.08921 129.68302 33089 ft 510 kts
2026-05-05 19:17 29.15982 129.69675 33044 ft 522 kts 10°
2026-05-05 19:18 29.19464 129.70844 33187 ft 521 kts 12°
2026-05-05 19:18 29.22932 129.72074 33110 ft 524 kts 12°
2026-05-05 19:18 29.29910 129.74562 33099 ft 526 kts 11°
2026-05-05 19:19 29.36922 129.76999 33095 ft 527 kts 11°
2026-05-05 19:19 29.43911 129.79386 33096 ft 528 kts 11°
2026-05-05 19:20 29.50954 129.81783 33074 ft 528 kts 11°
2026-05-05 19:20 29.58034 129.84201 33088 ft 527 kts 11°
2026-05-05 19:21 29.65016 129.86592 33075 ft 526 kts 11°
2026-05-05 19:21 29.72028 129.88998 33082 ft 525 kts 11°
2026-05-05 19:22 29.79024 129.91401 33081 ft 524 kts 11°
2026-05-05 19:22 29.86003 129.93802 33088 ft 523 kts 11°
2026-05-05 19:23 29.92983 129.96206 33083 ft 523 kts 11°
2026-05-05 19:23 29.99954 129.98610 33114 ft 523 kts 11°
2026-05-05 19:24 30.06948 130.01025 33083 ft 525 kts 11°
2026-05-05 19:24 30.13957 130.03450 33056 ft 527 kts 11°
2026-05-05 19:25 30.20993 130.05888 33090 ft 529 kts 11°
2026-05-05 19:25 30.28051 130.08337 33119 ft 530 kts 11°
2026-05-05 19:26 30.35127 130.10797 33098 ft 532 kts 11°
2026-05-05 19:26 30.42227 130.13268 33095 ft 534 kts 10°
2026-05-05 19:27 30.49300 130.15734 33110 ft 535 kts 10°
2026-05-05 19:27 30.56486 130.18243 33098 ft 536 kts 10°
2026-05-05 19:28 30.63635 130.20743 33096 ft 537 kts 10°
2026-05-05 19:28 30.70747 130.23234 33103 ft 537 kts 10°
2026-05-05 19:29 30.77901 130.25744 33116 ft 537 kts 10°
2026-05-05 19:29 30.85073 130.28262 33098 ft 538 kts 10°
2026-05-05 19:30 30.92234 130.30784 33106 ft 537 kts 10°
2026-05-05 19:30 30.99386 130.33305 33118 ft 538 kts
2026-05-05 19:31 31.06552 130.35834 33120 ft 537 kts
2026-05-05 19:31 31.13710 130.38364 33110 ft 538 kts
2026-05-05 19:32 31.20880 130.40903 33119 ft 539 kts
2026-05-05 19:32 31.28060 130.43449 33128 ft 539 kts
2026-05-05 19:33 31.35241 130.46000 33146 ft 540 kts
2026-05-05 19:33 31.42444 130.48549 33115 ft 540 kts
2026-05-05 19:34 31.49622 130.51092 33148 ft 537 kts
2026-05-05 19:35 31.60323 130.54947 33136 ft 539 kts
2026-05-05 19:35 31.67497 130.57522 33127 ft 542 kts 11°
2026-05-05 19:36 31.74383 130.61410 33173 ft 556 kts 27°
2026-05-05 19:36 31.80922 130.66311 33127 ft 559 kts 28°
2026-05-05 19:37 31.87475 130.71209 33161 ft 558 kts 27°
2026-05-05 19:37 31.94060 130.76021 33174 ft 557 kts 26°
2026-05-05 19:38 32.00676 130.80832 33143 ft 558 kts 26°
2026-05-05 19:38 32.07280 130.85655 33174 ft 559 kts 26°
2026-05-05 19:39 32.13882 130.90469 33162 ft 557 kts 26°
2026-05-05 19:39 32.20474 130.95262 33179 ft 556 kts 26°
2026-05-05 19:40 32.27069 131.00034 33168 ft 557 kts 26°
2026-05-05 19:40 32.33669 131.04818 33165 ft 558 kts 26°
2026-05-05 19:41 32.40309 131.09649 33138 ft 561 kts 26°
2026-05-05 19:41 32.46921 131.14522 33137 ft 559 kts 26°
2026-05-05 19:42 32.53517 131.19430 33187 ft 559 kts 26°
2026-05-05 19:42 32.60109 131.24338 33139 ft 560 kts 26°
2026-05-05 19:42 32.63417 131.26804 32889 ft 565 kts 26°
2026-05-05 19:43 32.66767 131.29299 32254 ft 567 kts 26°
2026-05-05 19:43 32.70083 131.31782 31701 ft 563 kts 25°
2026-05-05 19:43 32.73389 131.34269 31064 ft 564 kts 25°
2026-05-05 19:43 32.76706 131.36765 30390 ft 565 kts 25°
2026-05-05 19:44 32.80023 131.39261 29608 ft 565 kts 26°
2026-05-05 19:44 32.83343 131.41753 29120 ft 560 kts 25°
2026-05-05 19:44 32.86626 131.44189 28574 ft 556 kts 25°
2026-05-05 19:44 32.89871 131.46571 27924 ft 555 kts 25°
2026-05-05 19:45 32.93165 131.48979 27136 ft 555 kts 26°
2026-05-05 19:45 32.96446 131.51381 26389 ft 554 kts 26°
2026-05-05 19:45 32.99715 131.53785 25813 ft 550 kts 27°
2026-05-05 19:45 33.02949 131.56175 25287 ft 543 kts 27°
2026-05-05 19:46 33.06142 131.58540 24731 ft 538 kts 28°
2026-05-05 19:46 33.09292 131.60876 24191 ft 532 kts 28°
2026-05-05 19:46 33.12425 131.63196 23652 ft 526 kts 28°
2026-05-05 19:46 33.15509 131.65472 23307 ft 513 kts 28°
2026-05-05 19:47 33.18485 131.67689 23235 ft 497 kts 30°
2026-05-05 19:47 33.21235 131.70140 22856 ft 491 kts 39°
2026-05-05 19:47 33.23648 131.72995 22331 ft 489 kts 48°
2026-05-05 19:47 33.25686 131.76232 21801 ft 485 kts 54°
2026-05-05 19:48 33.27585 131.79529 21368 ft 479 kts 55°
2026-05-05 19:48 33.29463 131.82798 20868 ft 475 kts 55°
2026-05-05 19:48 33.31334 131.86026 20435 ft 469 kts 54°
2026-05-05 19:48 33.33190 131.89199 20012 ft 463 kts 54°
2026-05-05 19:49 33.35035 131.92335 19574 ft 458 kts 54°
2026-05-05 19:49 33.36247 131.94389 19280 ft 455 kts 54°
2026-05-05 19:49 33.38669 131.98494 18710 ft 448 kts 54°
2026-05-05 19:49 33.40456 132.01525 18279 ft 443 kts 54°
2026-05-05 19:50 33.42224 132.04530 17803 ft 438 kts 54°
2026-05-05 19:50 33.43967 132.07494 17313 ft 434 kts 55°
2026-05-05 19:50 33.45697 132.10438 16830 ft 430 kts 55°
2026-05-05 19:50 33.47425 132.13333 16362 ft 426 kts 53°
2026-05-05 19:51 33.49208 132.16150 15921 ft 421 kts 52°
2026-05-05 19:51 33.50392 132.17979 15624 ft 419 kts 52°
2026-05-05 19:51 33.52176 132.20721 15179 ft 415 kts 52°
2026-05-05 19:51 33.53937 132.23436 14731 ft 411 kts 52°
2026-05-05 19:52 33.55680 132.26139 14302 ft 407 kts 53°
2026-05-05 19:52 33.57398 132.28818 13877 ft 404 kts 53°
2026-05-05 19:52 33.59097 132.31478 13399 ft 400 kts 53°
2026-05-05 19:52 33.60776 132.34115 12918 ft 397 kts 53°
2026-05-05 19:53 33.62433 132.36719 12699 ft 387 kts 53°
2026-05-05 19:53 33.64033 132.39235 12663 ft 372 kts 53°
2026-05-05 19:53 33.65581 132.41672 12558 ft 360 kts 53°
2026-05-05 19:53 33.67072 132.44019 12481 ft 348 kts 53°
2026-05-05 19:54 33.68509 132.46284 12209 ft 336 kts 53°
2026-05-05 19:54 33.69914 132.48500 11799 ft 330 kts 53°
2026-05-05 19:54 33.71283 132.50661 11547 ft 319 kts 53°
2026-05-05 19:54 33.72609 132.52752 11214 ft 312 kts 53°
2026-05-05 19:55 33.73907 132.54802 10904 ft 304 kts 53°
2026-05-05 19:55 33.75159 132.56780 10598 ft 297 kts 53°
2026-05-05 19:55 33.76412 132.58761 10269 ft 292 kts 53°
2026-05-05 19:55 33.77655 132.60673 9861 ft 289 kts 47°
2026-05-05 19:56 33.79307 132.61996 9441 ft 284 kts 15°
2026-05-05 19:56 33.81201 132.62235 9226 ft 270 kts 350°
2026-05-05 19:56 33.82933 132.61528 8895 ft 260 kts 324°
2026-05-05 19:56 33.84243 132.60134 8647 ft 254 kts 306°
2026-05-05 19:57 33.85127 132.58219 8325 ft 266 kts 285°
2026-05-05 19:57 33.85585 132.56073 8128 ft 270 kts 281°
2026-05-05 19:57 33.86008 132.53799 7728 ft 276 kts 280°
2026-05-05 19:57 33.86414 132.51592 7490 ft 273 kts 280°
2026-05-05 19:58 33.86827 132.49360 7184 ft 274 kts 280°
2026-05-05 19:58 33.87243 132.47131 6917 ft 273 kts 280°
2026-05-05 19:58 33.87661 132.44907 6630 ft 272 kts 280°
2026-05-05 19:58 33.88080 132.42684 6334 ft 272 kts 280°
2026-05-05 19:59 33.88498 132.40470 6035 ft 271 kts 280°
2026-05-05 19:59 33.88916 132.38264 5750 ft 270 kts 280°
2026-05-05 19:59 33.89331 132.36073 5449 ft 265 kts 280°
2026-05-05 19:59 33.89733 132.33945 5180 ft 256 kts 280°
2026-05-05 20:00 33.90124 132.31883 4931 ft 250 kts 280°
2026-05-05 20:00 33.90506 132.29867 4789 ft 241 kts 279°
2026-05-05 20:00 33.90866 132.27967 4738 ft 226 kts 279°
2026-05-05 20:00 33.91206 132.26168 4660 ft 214 kts 279°
2026-05-05 20:01 33.91526 132.24483 4574 ft 200 kts 280°
2026-05-05 20:01 33.92154 132.22966 4059 ft 213 kts 312°
2026-05-05 20:01 33.93327 132.21964 3916 ft 200 kts 332°
2026-05-05 20:01 33.94682 132.21648 3707 ft 198 kts
2026-05-05 20:02 33.96045 132.21764 3416 ft 194 kts
2026-05-05 20:02 33.97325 132.21957 3208 ft 180 kts
2026-05-05 20:02 33.98530 132.22152 3002 ft 167 kts
2026-05-05 20:02 33.99668 132.22338 2736 ft 162 kts
2026-05-05 20:03 34.00759 132.22516 2518 ft 155 kts
2026-05-05 20:03 34.01801 132.22684 2325 ft 152 kts
2026-05-05 20:03 34.02855 132.22856 2131 ft 155 kts
2026-05-05 20:03 34.03964 132.23002 1967 ft 164 kts
2026-05-05 20:04 34.05108 132.23037 1888 ft 164 kts
2026-05-05 20:04 34.06244 132.23152 1733 ft 164 kts
2026-05-05 20:04 34.07380 132.23311 1542 ft 165 kts
2026-05-05 20:04 34.08518 132.23536 1329 ft 164 kts 10°
2026-05-05 20:05 34.09627 132.23758 1055 ft 160 kts
2026-05-05 20:05 34.10717 132.23975 758 ft 157 kts
2026-05-05 20:05 34.11766 132.24177 459 ft 149 kts
2026-05-05 20:05 34.12756 132.24371 178 ft 139 kts
2026-05-05 20:06 34.13656 132.24543 18 ft 120 kts
2026-05-05 20:06 34.14339 132.24673 15 ft 60 kts
2026-05-05 20:06 34.14562 132.24715 16 ft 18 kts
2026-05-05 20:06 34.14634 132.24704 19 ft 10 kts 318°
2026-05-05 20:07 34.14663 132.24605 16 ft 14 kts 303°
2026-05-05 20:07 34.14755 132.24583 17 ft 15 kts
2026-05-05 20:07 34.14884 132.24608 16 ft 22 kts
2026-05-05 20:07 34.15037 132.24638 16 ft 22 kts
2026-05-05 20:08 34.15187 132.24667 16 ft 21 kts
2026-05-05 20:08 34.15327 132.24695 15 ft 16 kts
2026-05-05 20:08 34.15404 132.24630 15 ft 15 kts 283°
2026-05-05 20:08 34.15420 132.24507 16 ft 15 kts 278°
2026-05-05 20:09 34.15435 132.24389 16 ft 14 kts 279°
2026-05-05 20:09 34.15450 132.24276 16 ft 13 kts 279°
2026-05-05 20:09 34.15467 132.24155 16 ft 17 kts 279°
2026-05-05 20:09 34.15545 132.24058 16 ft 19 kts
2026-05-05 20:10 34.15682 132.24063 16 ft 20 kts 332°
2026-05-05 20:10 34.15726 132.23909 16 ft 20 kts 279°
2026-05-05 20:10 34.15756 132.23753 18 ft 19 kts 303°
2026-05-05 20:10 34.15862 132.23696 16 ft 13 kts 339°
2026-05-05 20:11 34.15890 132.23606 16 ft 11 kts 273°
2026-05-05 20:11 34.15892 132.23577 16 ft 0 kts 278°